APG1192 RPVE-RPLL

Flight info

Callsign APG1192
Flight time 0h 45m
Altitude 22000
Route MINOR8A MINOR B473 LAIYA LAIYA3P
Aircraft A20N/M-SDE2E3FGHIRWXY/LB1

Departure

Time 2026-04-25 14:56
Airport Godofredo P. Ramos Airport (RPVE)

Arrival

Time 2026-04-25 15:41
Airport Ninoy Aquino International Airport (RPLL)
Time Latitude Longitude Altitude Speed Heading
2026-04-25 14:13 11.92693 121.96444 12 ft 0 kts 151°
2026-04-25 14:48 11.92696 121.96442 12 ft 2 kts 151°
2026-04-25 14:48 11.92709 121.96435 12 ft 2 kts 162°
2026-04-25 14:48 11.92725 121.96435 12 ft 2 kts 200°
2026-04-25 14:48 11.92737 121.96444 12 ft 1 kts 234°
2026-04-25 14:49 11.92740 121.96449 12 ft 1 kts 248°
2026-04-25 14:49 11.92742 121.96453 12 ft 0 kts 243°
2026-04-25 14:50 11.92742 121.96452 12 ft 0 kts 243°
2026-04-25 14:51 11.92738 121.96446 12 ft 2 kts 243°
2026-04-25 14:51 11.92729 121.96426 12 ft 3 kts 243°
2026-04-25 14:51 11.92712 121.96391 12 ft 7 kts 243°
2026-04-25 14:51 11.92685 121.96337 12 ft 9 kts 243°
2026-04-25 14:52 11.92649 121.96269 12 ft 10 kts 241°
2026-04-25 14:52 11.92646 121.96209 12 ft 8 kts 309°
2026-04-25 14:52 11.92703 121.96172 12 ft 10 kts 333°
2026-04-25 14:52 11.92755 121.96146 12 ft 14 kts 331°
2026-04-25 14:53 11.92768 121.96027 12 ft 19 kts 242°
2026-04-25 14:53 11.92683 121.95860 12 ft 31 kts 242°
2026-04-25 14:53 11.92571 121.95635 12 ft 38 kts 245°
2026-04-25 14:53 11.92449 121.95390 12 ft 36 kts 243°
2026-04-25 14:54 11.92348 121.95187 12 ft 25 kts 245°
2026-04-25 14:54 11.92280 121.95076 12 ft 13 kts 221°
2026-04-25 14:54 11.92236 121.95015 12 ft 9 kts 281°
2026-04-25 14:54 11.92269 121.95015 12 ft 6 kts 68°
2026-04-25 14:55 11.92287 121.95064 12 ft 8 kts 65°
2026-04-25 14:55 11.92315 121.95119 12 ft 11 kts 61°
2026-04-25 14:55 11.92472 121.95431 13 ft 90 kts 64°
2026-04-25 14:55 11.92871 121.96235 46 ft 153 kts 64°
2026-04-25 14:56 11.93350 121.97205 709 ft 153 kts 63°
2026-04-25 14:56 11.93827 121.98156 1433 ft 157 kts 64°
2026-04-25 14:56 11.94334 121.99181 1925 ft 171 kts 63°
2026-04-25 14:56 11.94917 122.00333 2422 ft 188 kts 63°
2026-04-25 14:57 11.95542 122.01569 2921 ft 206 kts 63°
2026-04-25 14:57 11.96416 122.02812 3405 ft 227 kts 44°
2026-04-25 14:57 11.97773 122.03728 3922 ft 246 kts 31°
2026-04-25 14:57 11.99353 122.04524 4557 ft 259 kts 28°
2026-04-25 14:58 12.01015 122.05325 5366 ft 264 kts 29°
2026-04-25 14:58 12.02653 122.06135 6169 ft 267 kts 30°
2026-04-25 14:58 12.04325 122.06978 6973 ft 271 kts 29°
2026-04-25 14:58 12.06045 122.07849 7722 ft 276 kts 28°
2026-04-25 14:59 12.07768 122.08723 8436 ft 281 kts 28°
2026-04-25 14:59 12.09546 122.09624 9141 ft 286 kts 28°
2026-04-25 14:59 12.11340 122.10531 9825 ft 291 kts 27°
2026-04-25 14:59 12.13192 122.11462 10462 ft 297 kts 27°
2026-04-25 15:00 12.15110 122.12427 10818 ft 314 kts 27°
2026-04-25 15:00 12.17127 122.13444 11115 ft 331 kts 26°
2026-04-25 15:00 12.19255 122.14520 11491 ft 345 kts 26°
2026-04-25 15:00 12.21415 122.15614 12087 ft 350 kts 26°
2026-04-25 15:01 12.23611 122.16727 12737 ft 353 kts 26°
2026-04-25 15:01 12.25869 122.17871 13359 ft 357 kts 26°
2026-04-25 15:01 12.28120 122.19010 13756 ft 359 kts 26°
2026-04-25 15:01 12.30366 122.20149 13912 ft 361 kts 26°
2026-04-25 15:02 12.32612 122.21287 13915 ft 361 kts 26°
2026-04-25 15:02 12.34982 122.22237 13903 ft 361 kts 11°
2026-04-25 15:02 12.37495 122.22295 13911 ft 360 kts 349°
2026-04-25 15:02 12.39864 122.21444 13918 ft 360 kts 329°
2026-04-25 15:03 12.41951 122.20038 13972 ft 364 kts 325°
2026-04-25 15:03 12.44076 122.18536 14444 ft 369 kts 325°
2026-04-25 15:03 12.46172 122.17058 15103 ft 370 kts 325°
2026-04-25 15:03 12.48320 122.15550 15666 ft 373 kts 325°
2026-04-25 15:04 12.50477 122.14040 16184 ft 377 kts 325°
2026-04-25 15:04 12.52675 122.12508 16696 ft 381 kts 325°
2026-04-25 15:04 12.54890 122.10965 17199 ft 385 kts 325°
2026-04-25 15:04 12.57124 122.09410 17702 ft 389 kts 325°
2026-04-25 15:05 12.59363 122.07854 18194 ft 392 kts 325°
2026-04-25 15:05 12.61625 122.06281 18696 ft 395 kts 325°
2026-04-25 15:05 12.63919 122.04687 19196 ft 397 kts 325°
2026-04-25 15:06 12.68535 122.01477 20132 ft 403 kts 324°
2026-04-25 15:06 12.70849 121.99867 20580 ft 405 kts 324°
2026-04-25 15:06 12.73195 121.98235 21028 ft 408 kts 324°
2026-04-25 15:06 12.75564 121.96585 21468 ft 410 kts 324°
2026-04-25 15:07 12.77915 121.94948 21813 ft 413 kts 324°
2026-04-25 15:07 12.80331 121.93265 21918 ft 413 kts 324°
2026-04-25 15:07 12.82696 121.91616 21926 ft 412 kts 324°
2026-04-25 15:07 12.85057 121.89970 21925 ft 412 kts 324°
2026-04-25 15:08 12.87437 121.88312 21925 ft 411 kts 324°
2026-04-25 15:08 12.89804 121.86661 21928 ft 411 kts 324°
2026-04-25 15:08 12.92205 121.84985 21929 ft 411 kts 324°
2026-04-25 15:08 12.94572 121.83334 21937 ft 411 kts 324°
2026-04-25 15:09 12.96932 121.81687 21945 ft 411 kts 324°
2026-04-25 15:09 12.99309 121.80028 21948 ft 411 kts 324°
2026-04-25 15:09 13.04079 121.76696 21950 ft 411 kts 324°
2026-04-25 15:10 13.06451 121.75040 21945 ft 411 kts 324°
2026-04-25 15:10 13.08808 121.73393 21942 ft 410 kts 324°
2026-04-25 15:10 13.13563 121.70082 21945 ft 410 kts 324°
2026-04-25 15:11 13.15948 121.68424 21945 ft 410 kts 324°
2026-04-25 15:11 13.18311 121.66778 21945 ft 410 kts 324°
2026-04-25 15:11 13.20698 121.65110 21948 ft 410 kts 324°
2026-04-25 15:12 13.25417 121.61809 21951 ft 409 kts 324°
2026-04-25 15:12 13.27760 121.60170 21951 ft 409 kts 324°
2026-04-25 15:12 13.30114 121.58521 21953 ft 409 kts 324°
2026-04-25 15:12 13.30924 121.57954 21957 ft 409 kts 324°
2026-04-25 15:13 13.34839 121.55210 21956 ft 408 kts 324°
2026-04-25 15:13 13.39492 121.51944 21131 ft 410 kts 324°
2026-04-25 15:13 13.41886 121.50261 20268 ft 416 kts 324°
2026-04-25 15:14 13.44281 121.48577 19641 ft 415 kts 324°
2026-04-25 15:14 13.46667 121.46902 19073 ft 412 kts 324°
2026-04-25 15:14 13.49006 121.45258 18488 ft 410 kts 324°
2026-04-25 15:14 13.51373 121.43593 18053 ft 402 kts 324°
2026-04-25 15:15 13.53624 121.42012 17966 ft 386 kts 324°
2026-04-25 15:15 13.55795 121.40488 17934 ft 369 kts 324°
2026-04-25 15:15 13.57883 121.39016 17814 ft 356 kts 324°
2026-04-25 15:15 13.59887 121.37543 17506 ft 350 kts 323°
2026-04-25 15:16 13.61832 121.36092 17202 ft 342 kts 323°
2026-04-25 15:16 13.63766 121.34644 16858 ft 335 kts 322°
2026-04-25 15:16 13.67484 121.31840 15988 ft 327 kts 323°
2026-04-25 15:17 13.71103 121.29126 15250 ft 316 kts 323°
2026-04-25 15:17 13.72885 121.27793 14896 ft 311 kts 323°
2026-04-25 15:17 13.74615 121.26500 14554 ft 307 kts 323°
2026-04-25 15:18 13.76327 121.25221 14212 ft 305 kts 323°
2026-04-25 15:18 13.79744 121.22669 13530 ft 302 kts 323°
2026-04-25 15:18 13.81448 121.21397 13204 ft 301 kts 323°
2026-04-25 15:19 13.83167 121.20113 12994 ft 306 kts 323°
2026-04-25 15:19 13.83725 121.19696 12978 ft 306 kts 323°
2026-04-25 15:19 13.86624 121.17531 12980 ft 308 kts 323°
2026-04-25 15:19 13.88349 121.16243 12984 ft 308 kts 323°
2026-04-25 15:20 13.90091 121.14942 12984 ft 308 kts 323°
2026-04-25 15:20 13.91842 121.13633 12982 ft 309 kts 323°
2026-04-25 15:20 13.93583 121.12331 12978 ft 310 kts 323°
2026-04-25 15:20 13.95327 121.11027 12973 ft 310 kts 323°
2026-04-25 15:21 13.97090 121.09708 12972 ft 310 kts 323°
2026-04-25 15:21 13.98902 121.08489 12967 ft 311 kts 336°
2026-04-25 15:21 14.00998 121.07954 12983 ft 311 kts 353°
2026-04-25 15:21 14.03165 121.07793 12976 ft 312 kts 356°
2026-04-25 15:22 14.05353 121.07707 12979 ft 312 kts 357°
2026-04-25 15:22 14.07531 121.07633 12765 ft 312 kts 358°
2026-04-25 15:22 14.09691 121.07561 12430 ft 311 kts 358°
2026-04-25 15:22 14.11856 121.07485 11977 ft 312 kts 358°
2026-04-25 15:23 14.14033 121.07402 11425 ft 312 kts 358°
2026-04-25 15:23 14.16196 121.07310 10978 ft 310 kts 358°
2026-04-25 15:23 14.18342 121.07210 10526 ft 305 kts 358°
2026-04-25 15:23 14.20457 121.07108 10073 ft 300 kts 358°
2026-04-25 15:24 14.22534 121.07000 9616 ft 295 kts 358°
2026-04-25 15:24 14.24578 121.06886 9186 ft 289 kts 358°
2026-04-25 15:24 14.26576 121.06770 8999 ft 288 kts 358°
2026-04-25 15:24 14.27243 121.06730 8998 ft 288 kts 358°
2026-04-25 15:25 14.30617 121.06508 8980 ft 290 kts 353°
2026-04-25 15:25 14.32535 121.05855 8730 ft 296 kts 329°
2026-04-25 15:25 14.34048 121.04431 8157 ft 303 kts 304°
2026-04-25 15:25 14.34860 121.02435 7567 ft 304 kts 279°
2026-04-25 15:26 14.34768 121.00304 7120 ft 297 kts 253°
2026-04-25 15:26 14.33928 120.98419 7015 ft 288 kts 240°
2026-04-25 15:26 14.32888 120.96630 7004 ft 290 kts 238°
2026-04-25 15:26 14.31821 120.94870 6997 ft 289 kts 238°
2026-04-25 15:27 14.30757 120.93124 6700 ft 286 kts 238°
2026-04-25 15:27 14.29697 120.91385 6281 ft 288 kts 238°
2026-04-25 15:27 14.27574 120.87880 5998 ft 289 kts 238°
2026-04-25 15:28 14.26510 120.86118 5988 ft 289 kts 238°
2026-04-25 15:28 14.25443 120.84353 5986 ft 289 kts 238°
2026-04-25 15:28 14.24387 120.82604 5993 ft 289 kts 238°
2026-04-25 15:28 14.23328 120.80850 5989 ft 289 kts 238°
2026-04-25 15:29 14.22261 120.79085 5985 ft 289 kts 238°
2026-04-25 15:29 14.21195 120.77329 5977 ft 289 kts 238°
2026-04-25 15:29 14.20122 120.75561 5976 ft 289 kts 238°
2026-04-25 15:29 14.19062 120.73817 5972 ft 289 kts 238°
2026-04-25 15:30 14.17985 120.72044 5972 ft 289 kts 238°
2026-04-25 15:30 14.16933 120.70309 5902 ft 286 kts 238°
2026-04-25 15:30 14.15875 120.68561 5521 ft 286 kts 238°
2026-04-25 15:30 14.14821 120.66814 5126 ft 287 kts 238°
2026-04-25 15:31 14.13954 120.65009 4959 ft 282 kts 258°
2026-04-25 15:31 14.14058 120.63030 4955 ft 280 kts 293°
2026-04-25 15:31 14.15179 120.61433 4959 ft 275 kts 323°
2026-04-25 15:31 14.16853 120.60533 4950 ft 271 kts 348°
2026-04-25 15:32 14.18738 120.60434 4950 ft 267 kts 13°
2026-04-25 15:32 14.20430 120.61120 4962 ft 264 kts 33°
2026-04-25 15:32 14.21996 120.62152 4963 ft 265 kts 34°
2026-04-25 15:33 14.25135 120.64209 4960 ft 266 kts 33°
2026-04-25 15:33 14.26711 120.65215 4956 ft 266 kts 33°
2026-04-25 15:33 14.28285 120.66212 4962 ft 265 kts 33°
2026-04-25 15:33 14.29857 120.67204 4967 ft 265 kts 33°
2026-04-25 15:34 14.31435 120.68199 4960 ft 265 kts 33°
2026-04-25 15:34 14.32864 120.69383 4895 ft 265 kts 48°
2026-04-25 15:34 14.33934 120.70931 4582 ft 263 kts 60°
2026-04-25 15:34 14.34230 120.71473 4478 ft 261 kts 62°
2026-04-25 15:35 14.36375 120.75763 3694 ft 244 kts 63°
2026-04-25 15:35 14.37173 120.77293 3418 ft 240 kts 62°
2026-04-25 15:35 14.37981 120.78789 3140 ft 237 kts 61°
2026-04-25 15:36 14.39545 120.81615 2938 ft 217 kts 60°
2026-04-25 15:36 14.40299 120.82964 2935 ft 209 kts 60°
2026-04-25 15:36 14.41002 120.84223 2928 ft 197 kts 60°
2026-04-25 15:37 14.41662 120.85406 3030 ft 183 kts 60°
2026-04-25 15:37 14.42288 120.86529 2809 ft 177 kts 60°
2026-04-25 15:37 14.42885 120.87600 2593 ft 170 kts 60°
2026-04-25 15:37 14.43469 120.88650 2382 ft 163 kts 60°
2026-04-25 15:38 14.44011 120.89625 2179 ft 151 kts 60°
2026-04-25 15:38 14.44528 120.90554 2023 ft 146 kts 60°
2026-04-25 15:38 14.45029 120.91456 1833 ft 143 kts 59°
2026-04-25 15:38 14.45520 120.92339 1658 ft 142 kts 59°
2026-04-25 15:39 14.46012 120.93224 1475 ft 141 kts 59°
2026-04-25 15:39 14.46502 120.94106 1294 ft 141 kts 59°
2026-04-25 15:39 14.46985 120.94976 1117 ft 141 kts 59°
2026-04-25 15:39 14.47477 120.95862 933 ft 140 kts 60°
2026-04-25 15:40 14.47958 120.96731 748 ft 140 kts 60°
2026-04-25 15:40 14.48116 120.97017 687 ft 140 kts 60°
2026-04-25 15:40 14.48922 120.98467 421 ft 139 kts 60°
2026-04-25 15:40 14.49406 120.99336 244 ft 139 kts 60°
2026-04-25 15:41 14.49894 121.00201 80 ft 138 kts 61°
2026-04-25 15:41 14.50326 121.00983 36 ft 103 kts 60°
2026-04-25 15:41 14.50594 121.01469 46 ft 53 kts 61°
2026-04-25 15:41 14.50697 121.01643 49 ft 4 kts 50°
2026-04-25 15:42 14.50765 121.01716 50 ft 20 kts 41°
2026-04-25 15:42 14.50861 121.01788 51 ft 9 kts 13°
2026-04-25 15:42 14.50903 121.01762 52 ft 7 kts 289°
2026-04-25 15:42 14.50882 121.01702 52 ft 10 kts 234°
2026-04-25 15:43 14.50829 121.01608 52 ft 20 kts 241°
2026-04-25 15:43 14.50739 121.01449 50 ft 28 kts 238°
2026-04-25 15:43 14.50707 121.01327 48 ft 11 kts 309°
2026-04-25 15:43 14.50759 121.01310 49 ft 7 kts 346°
2026-04-25 15:44 14.50809 121.01286 50 ft 8 kts 329°
2026-04-25 15:44 14.50828 121.01273 50 ft 0 kts 328°